x

Portage Canal, Mi (pclm4) Weather Station

10:40pm - Tue 30th Sep 2014 All times are CDT. -5 hours from GMT.

  • Wind
    1mph, 3mph gusts
  • Air Temp 43°f
  • Sea Pressure 1017.9mb
  • Portage Canal, Mi
  • Portage Canal, Mi

More Historic Weather Station data

Upgrade to MSW Pro to gain access to the past 30 days of data for over 8000 Wavebouys and Weather Stations around the globe.

Join Pro

Comparision Forecast

View Surf forecast
   
Tue 09/30 10:40pm 1 3 mph 1017.9mb 43f
10:30pm 2 3 mph 1017.9mb 42f
10:20pm 2 5 mph 1017.9mb 43f
10:10pm 2 5 mph 1017.9mb 42f
10:00pm 1 5 mph 1017.6mb 42f
9:40pm 2 5 mph 1017.6mb 43f
9:30pm 2
mph
1017.6mb 42f
9:20pm 1 7 mph 1017.6mb 43f
9:10pm 2 7 mph 1017.6mb 43f
9:00pm 3 6 mph 1017.9mb 43f
8:40pm 2 6 mph 1017.9mb 43f
8:30pm 3 7 mph 1017.9mb 43f
8:20pm 3 8 mph 1018.3mb 43f
8:10pm 5 9 mph 1018.3mb 44f
8:00pm 7 13 mph 1018.3mb 44f
7:40pm 5 10 mph 1017.9mb 44f
7:30pm 6 13 mph 1017.9mb 44f
7:20pm 7 14 mph 1017.9mb 44f
7:10pm 6 11 mph 1017.9mb 44f
7:00pm 6 11 mph 1017.9mb 44f
5:40pm 5 10 mph 1018.3mb 49f
5:30pm 5 11 mph 1018.6mb 49f
5:20pm 2 8 mph 1018.6mb 51f
5:10pm 6 11 mph 1019mb 51f
5:00pm 6 9 mph 1019mb 51f
4:40pm 5 10 mph 1019mb 52f
4:30pm 3 9 mph 1019mb 53f
4:20pm 2 10 mph 1019mb 53f
4:10pm 7 10 mph 1019mb 53f
4:00pm 3 9 mph 1019mb 53f
3:40pm 5 8 mph 1019mb 52f
3:30pm 9 11 mph 1019mb 49f
3:20pm 8 14 mph 1019mb 49f
3:10pm 8 13 mph 1019mb 49f
3:00pm 8 13 mph 1019mb 49f
2:40pm 7 14 mph 1019.3mb 49f
2:30pm 7 13 mph 1019.3mb 49f
2:20pm 8 13 mph 1019.3mb 49f
2:10pm 9 14 mph 1019.6mb 49f
2:00pm 10 14 mph 1019.6mb 48f
1:40pm 9 15 mph 1019.6mb 49f
1:30pm 9 15 mph 1019.6mb 49f
1:20pm 11 16 mph 1020mb 48f
1:10pm 10 17 mph 1020mb 48f
1:00pm 11 15 mph 1020.3mb 48f
12:40pm 10 17 mph 1020.3mb 48f
12:30pm 10 17 mph 1020.7mb 48f
12:20pm 8 15 mph 1020.7mb 48f
12:10pm 9 15 mph 1020.7mb 48f
12:00pm 11 16 mph 1020.7mb 48f
11:40am 10 16 mph 1021mb 47f
11:30am 11 16 mph 1021mb 47f
11:20am 13 16 mph 1021.3mb 47f
11:10am 10 15 mph 1021.3mb 47f
11:00am 10 14 mph 1021.3mb 48f
10:40am 11 14 mph 1021.7mb 47f
10:30am 10 14 mph 1021.7mb 48f
10:20am 10 14 mph 1021.7mb 47f
10:10am 10 14 mph 1021.7mb 48f
10:00am 9 11 mph 1021.7mb 47f
9:40am 5 8 mph 1021.7mb 47f
9:30am 6 7 mph 1021.7mb 48f
9:20am 3 5 mph 1022mb 48f
9:10am 2 5 mph 1022mb 48f
9:00am 2 3 mph 1022mb 47f
8:40am  -  2 mph 1022.4mb 46f
8:30am  -  mph 1022.4mb 44f
8:20am  -  1 mph 1022.4mb 43f
8:10am  -  mph 1022mb 42f
8:00am  -  mph 1022.4mb 40f
7:40am  -  mph 1022.4mb 36f
7:30am  -  2 mph 1022.4mb 36f
7:20am 2 3 mph 1022mb 35f
7:10am 1 2 mph 1022mb 35f
7:00am  -  2 mph 1022mb 35f
6:40am 3 5 mph 1022mb 37f
6:30am 3 6 mph 1022mb 37f
6:20am 3 6 mph 1021.7mb 37f
6:10am 3 6 mph 1021.7mb 38f
6:00am 3 7 mph 1021.7mb 38f
5:40am 3 7 mph 1021.7mb 39f
5:30am 5 7 mph 1021.7mb 39f
5:20am 3 6 mph 1021.7mb 39f
5:10am 3 7 mph 1021.7mb 40f
5:00am 2 6 mph 1021.7mb 40f
4:40am 5 7 mph 1021.7mb 41f
4:30am 5 7 mph 1022mb 40f
4:20am 5 7 mph 1022mb 40f
4:10am 3 7 mph 1022mb 40f
4:00am 3 6 mph 1022mb 38f
3:40am 2 6 mph 1022mb 36f
3:30am 3 5 mph 1022mb 35f
3:20am 3 5 mph 1022mb 35f
3:10am 2 3 mph 1022mb 35f
3:00am 2
mph
1022mb 35f
2:40am 2 5 mph 1022.4mb 36f
2:30am 3 5 mph 1022.4mb 37f
2:20am 1 2 mph 1022.4mb 37f
2:10am 2 3 mph 1022.4mb 38f
2:00am  -  2 mph 1022.4mb 39f
1:40am 3 6 mph 1022.4mb 42f
1:30am 2 6 mph 1022.4mb 42f
1:20am 3 8 mph 1022.4mb 42f
1:10am 2 9 mph 1022.4mb 42f
1:00am 5 8 mph 1022.4mb 42f
12:40am 6 9 mph 1022.7mb 42f
12:30am 6 13 mph 1022.7mb 42f
12:20am 3 9 mph 1022.7mb 42f
12:10am 3 8 mph 1022.7mb 42f
12:00am 7 9 mph 1022.7mb 42f
Mon 09/29 11:40pm 5 8 mph 1023mb 42f
11:30pm 5 9 mph 1023mb 42f
11:20pm 8 10 mph 1023mb 42f
11:10pm 5 11 mph 1023mb 42f
11:00pm 8 13 mph 1023.4mb 43f
10:50pm 6 13 mph 1023mb 43f
10:40pm 6 13 mph 1023mb 43f
10:30pm 6 10 mph 1023mb 42f
10:20pm 7 14 mph 1023mb 43f
10:10pm 6 14 mph 1023mb 42f
10:00pm 9 17 mph 1023mb 42f
9:50pm 7 14 mph 1023mb 42f
9:40pm 8 11 mph 1023.4mb 42f
9:30pm 8 14 mph 1023.4mb 42f
9:20pm 8 14 mph 1023mb 42f
9:10pm 9 16 mph 1023.4mb 43f
9:00pm 9 17 mph 1023.4mb 43f
8:50pm 7 18 mph 1023.4mb 43f
8:40pm 8 16 mph 1023.4mb 43f
8:30pm 11 23 mph 1023.7mb 44f
8:20pm 17 23 mph 1023.4mb 43f
8:10pm 18 24 mph 1023.4mb 44f
8:00pm 9 20 mph 1023.4mb 43f
7:50pm 17 21 mph 1023mb 44f
7:40pm 15 21 mph 1023.4mb 44f
7:30pm 13 21 mph 1023mb 43f
7:20pm 10 22 mph 1023mb 43f
7:10pm 7 16 mph 1023mb 43f
7:00pm 10 21 mph 1023mb 43f
6:50pm 13 18 mph 1023mb 43f
6:40pm 15 21 mph 1023mb 43f
6:30pm 14 21 mph 1023mb 43f
6:20pm 15 20 mph 1023mb 43f
6:10pm 16 21 mph 1023mb 43f
6:00pm 14 22 mph 1023.4mb 43f
5:50pm 17 22 mph 1023.4mb 43f
5:40pm 13 21 mph 1023mb 43f
5:30pm 15 22 mph 1023mb 43f
5:20pm 20 24 mph 1023mb 43f
5:10pm 15 22 mph 1023.4mb 43f
5:00pm 18 23 mph 1023.4mb 43f
4:50pm 14 22 mph 1023.4mb 43f
4:40pm 17 25 mph 1023.4mb 43f
4:30pm 18 23 mph 1023mb 43f
4:20pm 16 24 mph 1023mb 43f
4:10pm 21 25 mph 1023mb 43f
4:00pm 18 23 mph 1023mb 43f
3:50pm 18 23 mph 1023mb 43f
3:40pm 18 24 mph 1023.4mb 43f
3:30pm 17 25 mph 1023mb 43f
3:20pm 22 25 mph 1023mb 43f
3:10pm 20 24 mph 1023mb 43f
3:00pm 11 24 mph 1023mb 43f
2:50pm 14 23 mph 1023mb 42f
2:40pm 13 25 mph 1023mb 43f
2:30pm 16 25 mph 1023mb 43f
2:20pm 14 26 mph 1023mb 43f
2:10pm 21 26 mph 1023mb 42f
2:00pm 15 24 mph 1023mb 42f
1:50pm 16 28 mph 1023mb 43f
1:40pm 20 26 mph 1023mb 43f
1:30pm 13 26 mph 1023.4mb 43f
1:20pm 20 28 mph 1023.4mb 43f
1:10pm 16 30 mph 1023.7mb 43f
1:04pm 21 30 mph 1023.4mb 43f
1:00pm 15 28 mph 1023.7mb 43f
12:50pm 21 26 mph 1023.4mb 43f
12:40pm 15 26 mph 1023.4mb 43f
12:30pm 20 29 mph 1023mb 43f
12:20pm 23 29 mph 1023mb 42f
12:10pm 24 29 mph 1023mb 42f
12:00pm 23 30 mph 1023mb 42f
11:50am 20 29 mph 1023mb 43f
11:43am 20 29 mph 1023mb 43f
11:40am 15 28 mph 1023mb 43f
11:30am 21 29 mph 1023mb 43f
11:20am 17 29 mph 1023mb 43f
11:10am 21 30 mph 1023mb 42f
11:00am 20 29 mph 1023mb 42f
10:50am 17 31 mph 1023mb 42f
10:40am 22 29 mph 1023mb 42f
10:39am 21 29 mph 1023mb 42f
10:30am 23 31 mph 1023mb 43f
10:20am 25 30 mph 1023mb 42f
10:10am 23 31 mph 1023mb 42f
10:00am 26 31 mph 1022.7mb 42f
9:50am 17 30 mph 1022.7mb 42f
9:40am 20 31 mph 1023mb 42f
9:30am 23 31 mph 1022.7mb 43f
9:25am 22 31 mph 1022.7mb 43f
9:20am 23 29 mph 1022.7mb 43f
9:10am 20 29 mph 1022.4mb 42f
9:00am 23 30 mph 1022.7mb 42f
8:50am 23 29 mph 1022.4mb 42f
8:40am 24 30 mph 1022.4mb 42f
8:30am 23 29 mph 1022.4mb 42f
8:20am 16 30 mph 1022.4mb 42f
8:14am 24 30 mph 1022mb 42f
8:10am 23 29 mph 1022.4mb 42f
8:00am 20 28 mph 1022.4mb 42f
7:50am 20 28 mph 1022mb 42f
7:40am 20 31 mph 1022mb 42f
7:30am 22 33 mph 1021.7mb 42f
7:20am 22 30 mph 1021.7mb 42f
7:10am 13 28 mph 1021.7mb 42f
7:00am 22 32 mph 1021.7mb 42f
6:50am 21 30 mph 1021.3mb 43f
6:40am 14 31 mph 1021.3mb 43f
6:30am 22 32 mph 1021.3mb 43f
6:20am 23 31 mph 1021.3mb 43f
6:10am 18 32 mph 1021mb 43f
6:00am 28 31 mph 1021mb 43f
5:50am 24 34 mph 1020.7mb 43f
5:40am 24 30 mph 1020.7mb 43f
5:36am 21 29 mph 1020.7mb 44f
5:30am 17 31 mph 1020.7mb 44f
4:40am 14 30 mph 1020.3mb 44f
4:31am 15 29 mph 1020.7mb 43f
4:30am 15 25 mph 1020.7mb 43f
4:20am 14 24 mph 1020.3mb 43f
4:10am 14 23 mph 1020mb 44f
4:00am 15 22 mph 1020mb 44f
3:50am 10 21 mph 1020mb 44f
3:40am 10 23 mph 1020.3mb 44f
3:30am 8 20 mph 1020.7mb 44f
3:20am 11 23 mph 1020mb 44f
3:10am 11 23 mph 1020mb 44f
3:00am 11 20 mph 1020mb 44f
2:50am 10 24 mph 1020mb 44f
2:40am 15 29 mph 1020mb 45f
2:30am 14 22 mph 1020mb 45f
2:20am 8 15 mph 1019.6mb 44f
2:10am 8 17 mph 1019.6mb 44f
2:00am 10 22 mph 1019.6mb 45f
1:50am 10 20 mph 1019.6mb 45f
1:40am 9 18 mph 1019.3mb 45f
1:30am 9 17 mph 1019mb 45f
1:20am 15 22 mph 1019mb 45f
1:10am 11 24 mph 1019mb 45f
1:00am 13 23 mph 1019.3mb 46f
12:50am 13 22 mph 1019mb 45f
12:40am 10 20 mph 1019mb 46f
12:30am 14 24 mph 1019.3mb 47f
12:20am 11 20 mph 1019mb 47f
12:10am 9 25 mph 1019mb 46f
12:00am 13 18 mph 1019mb 47f
Sun 09/28 11:50pm 8 24 mph 1019mb 47f
11:40pm 15 29 mph 1019mb 47f
11:30pm 13 26 mph 1019mb 48f
11:20pm 13 26 mph 1019mb 48f
11:10pm 14 23 mph 1019mb 48f
11:00pm 14 24 mph 1018.6mb 47f
10:50pm 11 21 mph 1018.6mb 47f
10:40pm 14 24 mph 1019mb 48f
10:30pm 14 28 mph 1019mb 48f
10:20pm 14 31 mph 1019mb 48f
10:10pm 18 33 mph 1019mb 48f
10:00pm 18 32 mph 1019mb 49f
9:50pm 16 29 mph 1019mb 49f
9:40pm 15 32 mph 1019mb 50f
9:30pm 16 34 mph 1019mb 50f
9:20pm 18 30 mph 1018.6mb 50f
9:18pm 16 30 mph 1018.6mb 50f
9:10pm 13 22 mph 1018.6mb 50f
9:00pm 13 23 mph 1018.3mb 51f
8:50pm 13 22 mph 1018.3mb 51f
8:40pm 10 22 mph 1018.3mb 52f
8:30pm 14 21 mph 1017.9mb 52f
8:20pm 15 20 mph 1017.6mb 53f
8:10pm 11 16 mph 1017.6mb 53f
8:00pm 9 18 mph 1017.3mb 53f
7:50pm 10 16 mph 1017.3mb 54f
7:40pm 7 16 mph 1017.3mb 55f
7:30pm 6 14 mph 1016.9mb 55f
7:20pm 10 16 mph 1017.3mb 55f
7:10pm 5 15 mph 1016.9mb 55f
7:00pm 7 10 mph 1017.3mb 56f
6:50pm 6 15 mph 1016.9mb 55f
6:40pm 7 14 mph 1017.3mb 56f
6:30pm 10 15 mph 1017.3mb 59f
6:20pm 3 6 mph 1016.6mb 62f
6:10pm 3 7 mph 1016.6mb 60f
6:00pm 1 6 mph 1016.9mb 58f
5:50pm 3 11 mph 1016.9mb 56f
5:40pm 8 15 mph 1017.3mb 56f
5:30pm 11 17 mph 1017.3mb 56f
5:20pm 13 21 mph 1017.3mb 58f
5:10pm 7 11 mph 1016.9mb 60f
5:00pm 8 13 mph 1017.3mb 62f
4:50pm 6 10 mph 1017.3mb 63f
4:40pm 6 14 mph 1017.6mb 61f
4:30pm 6 13 mph 1017.6mb 62f
4:20pm 7 14 mph 1017.6mb 65f
4:10pm 6 7 mph 1017.3mb 65f
4:00pm 5 6 mph 1017.3mb 66f
3:50pm 3 8 mph 1017.3mb 70f
3:40pm 8 9 mph 1017.6mb 70f
3:30pm 2 5 mph 1017.6mb 71f
3:20pm 1 3 mph 1017.6mb 71f
3:10pm 1 5 mph 1017.6mb 70f
3:00pm 2 8 mph 1017.9mb 71f
2:50pm 5 7 mph 1017.9mb 69f
2:40pm 3 8 mph 1017.9mb 69f
2:30pm 5 7 mph 1017.9mb 69f
2:20pm 5 9 mph 1018.3mb 69f
2:10pm 5 10 mph 1017.9mb 68f
2:00pm 3 8 mph 1018.3mb 69f
1:50pm 3 11 mph 1018.3mb 71f
1:40pm 7 11 mph 1018.3mb 71f
1:30pm 6 11 mph 1018.3mb 71f
1:20pm 8 14 mph 1018.6mb 70f
1:10pm 6 16 mph 1018.6mb 71f
1:00pm 7 16 mph 1018.6mb 71f
12:50pm 8 16 mph 1019mb 69f
12:40pm 7 11 mph 1019mb 68f
12:30pm 6 10 mph 1019mb 70f
12:20pm 6 14 mph 1019.3mb 70f
12:10pm 7 11 mph 1019.3mb 69f
12:00pm 7 11 mph 1019.3mb 71f
11:50am 6 13 mph 1019.3mb 71f
11:40am 8 14 mph 1019.3mb 73f
11:30am 7 11 mph 1019.3mb 73f
11:20am 7 13 mph 1019.3mb 73f
11:10am 7 14 mph 1019.6mb 73f
11:00am 8 15 mph 1019.6mb 73f
10:50am 6 13 mph 1019.6mb 73f
10:40am 6 14 mph 1019.3mb 72f
10:30am 8 15 mph 1019.3mb 72f
10:20am 8 14 mph 1019.3mb 72f
10:10am 9 13 mph 1019.3mb 72f
10:00am 6 11 mph 1019.3mb 72f
9:50am 7 11 mph 1019.3mb 72f
9:40am 6 8 mph 1019.6mb 72f
9:30am 5 9 mph 1019.6mb 72f
9:20am 5 11 mph 1019.3mb 71f
9:10am 3 9 mph 1019.3mb 71f
9:00am 5 8 mph 1019.6mb 70f
8:50am 3 8 mph 1019.6mb 70f
8:40am 6 9 mph 1019.6mb 69f
8:30am 5 9 mph 1019.3mb 69f
8:20am 5 9 mph 1019.6mb 68f
8:10am 5 8 mph 1019.6mb 67f
8:00am 5 9 mph 1019.6mb 67f
7:50am 5 10 mph 1019.6mb 66f
7:40am 5 9 mph 1019.6mb 64f
7:30am 5 8 mph 1020mb 64f
7:20am 5 8 mph 1020mb 63f
7:10am 3 8 mph 1020mb 64f
7:00am 5 7 mph 1020mb 63f
6:50am 3 7 mph 1020mb 63f
6:40am 3 6 mph 1020mb 63f
6:30am 3 6 mph 1020mb 63f
6:20am 3 7 mph 1020mb 63f
6:10am 3 7 mph 1020mb 63f
6:00am 3 6 mph 1020mb 63f
5:50am 3 7 mph 1020mb 63f
5:40am 5 6 mph 1020mb 63f
5:30am 5 7 mph 1020mb 64f
5:20am 2 6 mph 1020mb 64f
5:10am 3 9 mph 1020mb 65f
5:00am 3 8 mph 1020mb 65f
4:50am 5 8 mph 1020mb 66f
4:40am 5 8 mph 1020mb 66f
4:30am 5 11 mph 1020mb 67f
4:20am 5 10 mph 1020mb 67f
4:10am 6 9 mph 1020mb 67f
4:00am 6 9 mph 1020mb 67f
3:50am 3 9 mph 1020mb 67f
3:40am 5 9 mph 1020mb 67f
3:30am 5 9 mph 1020mb 67f
3:20am 6 10 mph 1020mb 67f
3:10am 5 9 mph 1020mb 67f
3:00am 6 8 mph 1020mb 67f
2:50am 5 9 mph 1020mb 67f
2:40am 3 10 mph 1020mb 67f
2:30am 3 8 mph 1020mb 67f
2:20am 5 8 mph 1020.3mb 67f
2:10am 6 9 mph 1020mb 68f
2:00am 5 10 mph 1020mb 68f
1:50am 5 9 mph 1020mb 69f
1:40am 7 11 mph 1020mb 69f
1:30am 7 11 mph 1020mb 69f
1:20am 7 11 mph 1020mb 69f
1:10am 7 13 mph 1020mb 70f
1:00am 8 13 mph 1020mb 70f
12:50am 9 14 mph 1020mb 71f
12:40am 7 15 mph 1020mb 71f
12:30am 9 15 mph 1019.6mb 71f
12:20am 6 11 mph 1020mb 70f
12:10am 6 11 mph 1019.6mb 70f
12:00am 6 11 mph 1020mb 70f
Sat 09/27 11:50pm 6 11 mph 1020mb 70f
11:40pm 6 13 mph 1020mb 70f
11:30pm 7 13 mph 1020mb 70f
11:20pm 6 10 mph 1020mb 70f
11:10pm 6 9 mph 1020mb 69f
11:00pm 5 9 mph 1020mb 69f
10:50pm 5 7 mph 1019.6mb 69f
10:40pm 3 7 mph 1020mb 69f
10:30pm 5 13 mph 1020mb 71f
10:20pm 7 11 mph 1020mb 70f
10:10pm 5 9 mph 1020mb 70f
10:00pm 5 9 mph 1020mb 69f
9:50pm 6 10 mph 1020mb 70f
9:40pm 5 7 mph 1020mb 68f
9:30pm 5 8 mph 1020mb 69f
9:20pm 3 7 mph 1020mb 68f
9:10pm 5 8 mph 1020mb 69f
9:00pm 5 7 mph 1020mb 67f
8:50pm 3 7 mph 1020mb 67f
8:40pm 5 6 mph 1020mb 67f
8:30pm 3 6 mph 1019.6mb 67f
8:20pm 3 7 mph 1019.6mb 67f
8:10pm 3 7 mph 1019.6mb 68f
8:00pm 3 7 mph 1019.6mb 68f
7:50pm 3 6 mph 1019.6mb 68f
7:40pm 3 6 mph 1019.6mb 68f
7:30pm 3 6 mph 1019.3mb 69f
7:20pm 3 6 mph 1019.3mb 68f
7:10pm 3 6 mph 1019.3mb 69f
7:00pm 3 6 mph 1019.3mb 69f
6:50pm 3 6 mph 1019.3mb 70f
6:40pm 3 5 mph 1019.3mb 70f
6:30pm 3 5 mph 1019.3mb 70f
6:20pm 3 5 mph 1019.3mb 71f
6:10pm 2 3 mph 1019.3mb 72f
6:00pm  -  2 mph 1019.3mb 72f
5:50pm 2 5 mph 1019.3mb 73f
5:40pm 3 6 mph 1019.3mb 74f
5:30pm 2 6 mph 1019.3mb 77f
5:20pm 2 5 mph 1019.3mb 78f
5:10pm 2 5 mph 1019.3mb 79f
5:00pm 2 3 mph 1019.3mb 80f
4:50pm 2 5 mph 1019.6mb 79f
4:40pm 2 5 mph 1019.6mb 80f
4:30pm 2 3 mph 1019.3mb 80f
4:20pm 2 3 mph 1019.6mb 80f
4:10pm 2 6 mph 1019.6mb 80f
4:00pm 2 5 mph 1019.6mb 80f
3:50pm 2 5 mph 1020mb 80f
3:40pm 2 6 mph 1020mb 79f
3:30pm 2 6 mph 1020mb 78f
3:20pm 3 7 mph 1020.3mb 77f
3:10pm 3 7 mph 1020.3mb 77f
3:00pm 3 8 mph 1020.3mb 76f
2:50pm 3 8 mph 1020.3mb 75f
2:40pm 3 9 mph 1020.7mb 74f
2:30pm 6 9 mph 1020.7mb 74f
2:20pm 5 9 mph 1020.7mb 74f
2:10pm 3 8 mph 1020.7mb 75f
2:00pm 6 9 mph 1020.7mb 74f
1:50pm 3 8 mph 1020.7mb 75f
1:40pm 3 7 mph 1021mb 75f
1:30pm 2 7 mph 1021mb 75f
1:20pm 2 7 mph 1021mb 74f
1:10pm 2 6 mph 1021.3mb 75f
1:00pm 3 6 mph 1021.3mb 75f
12:50pm 2 8 mph 1021.3mb 75f
12:40pm 3 7 mph 1021.7mb 76f
12:30pm 3 8 mph 1021.7mb 75f
12:20pm 3 7 mph 1021.7mb 74f
12:10pm 3 11 mph 1021.7mb 75f
12:00pm 6 9 mph 1021.7mb 78f
11:50am 3 14 mph 1021.7mb 79f
11:40am 5 14 mph 1021.7mb 79f
11:30am 5 8 mph 1021.7mb 78f
11:20am 6 10 mph 1022mb 78f
11:10am 6 11 mph 1022mb 77f
11:00am 8 10 mph 1022mb 77f
10:50am 5 11 mph 1022mb 77f
10:40am 5 8 mph 1022mb 76f
10:30am 7 11 mph 1022.4mb 75f
10:20am 5 10 mph 1022.4mb 74f
10:10am 5 10 mph 1022.4mb 74f
10:00am 8 13 mph 1022.4mb 74f
9:50am 3 11 mph 1022.4mb 73f
9:40am 5 9 mph 1022.4mb 73f
9:30am 3 9 mph 1022.4mb 72f
9:20am 5 10 mph 1022.7mb 71f
9:10am 6 13 mph 1022.7mb 70f
9:00am 6 10 mph 1022.7mb 70f
8:50am 7 13 mph 1022.7mb 70f
8:40am 7 10 mph 1022.7mb 69f
8:30am 5 10 mph 1023mb 69f
8:20am 5 10 mph 1022.7mb 68f
8:10am 5 11 mph 1022.7mb 67f
8:00am 5 9 mph 1022.7mb 66f
7:50am 5 13 mph 1022.7mb 65f
7:40am 5 9 mph 1022.7mb 65f
7:30am 5 10 mph 1022.7mb 64f
7:20am 5 10 mph 1022.7mb 64f
7:10am 6 9 mph 1022.7mb 64f
7:00am 6 11 mph 1022.7mb 63f
6:50am 6 9 mph 1022.7mb 63f
6:40am 5 10 mph 1022.7mb 63f
6:30am 6 10 mph 1022.7mb 63f
6:20am 6 10 mph 1022.7mb 63f
6:10am 6 10 mph 1022.7mb 63f
6:00am 6 11 mph 1022.7mb 63f
5:50am 5 10 mph 1022.7mb 63f
5:40am 5 9 mph 1022.7mb 62f
5:30am 5 10 mph 1022.7mb 62f
5:20am 3 8 mph 1022.7mb 62f
5:10am 3 7 mph 1022.7mb 62f
5:00am 5 8 mph 1022.7mb 61f
4:50am 3 6 mph 1022.7mb 59f
4:40am 2 6 mph 1022.7mb 60f